Regional Weather Roundup
Issued by NWS Boston, MA

Current Version | Previous Version | Text Only | Print | Product List | Glossary Off
Versions: 1 2 3 4 5 6 7 8 9 10 11 12 13 14 15 16 17 18 19 20 21 22 23 24 25 26 27 28 29 30 31 32 33 34 35 36 37 38 39 40 41 42 43 44 45 46 47 48 49 50
000 ASUS41 KBOX 200110 RWRBOX REGIONAL WEATHER ROUNDUP NATIONAL WEATHER SERVICE BOSTON/NORTON MA 900 PM EDT TUE JUN 19 2018 NOTE: "FAIR" INDICATES FEW OR NO CLOUDS BELOW 12,000 FEET WITH NO SIGNIFICANT WEATHER AND/OR OBSTRUCTIONS TO VISIBILITY. MAZALL-200200- EASTERN MASSACHUSETTS CITY SKY/WX TMP DP RH WIND PRES REMARKS BOSTON FAIR 76 45 33 N9 29.82R BEVERLY FAIR 67 49 52 NW7 29.82R LAWRENCE FAIR 72 47 40 N3 29.85R BEDFORD FAIR 67 49 52 NW5 29.82R BLUE HILL N/A 69 48 47 NW9 29.84R NORWOOD FAIR 72 49 44 NW5 29.82R MARSHFIELD FAIR 64 55 72 CALM 29.82R PLYMOUTH FAIR 66 54 65 E3 29.83R TAUNTON FAIR 62 55 77 CALM 29.81R NEW BEDFORD FAIR 69 55 60 N3 29.81R $$ MAZALL-200200- CAPE COD AND THE ISLANDS CITY SKY/WX TMP DP RH WIND PRES REMARKS FALMOUTH FAIR 66 54 63 N3 29.84R HYANNIS FAIR 64 56 75 CALM 29.82R CHATHAM FAIR 65 51 60 N3 29.82R PROVINCETOWN FAIR 61 51 70 CALM 29.83R NANTUCKET FAIR 61 58 90 W6 29.83R MARTHAS VNYRD FAIR 64 60 87 CALM 29.82R $$ MAZALL-200200- CENTRAL AND WESTERN MASSACHUSETTS CITY SKY/WX TMP DP RH WIND PRES REMARKS WORCESTER FAIR 67 49 52 NW10 29.87R FITCHBURG FAIR 66 50 56 N5 29.86R ORANGE FAIR 68 46 45 N7 29.88R SPRINGFIELD PTCLDY 70 49 48 N6 29.85R WESTFIELD FAIR 70 52 52 N5 29.86R NORTH ADAMS N/A N/A N/A N/A MISG 29.88 PITTSFIELD FAIR 66 54 65 CALM 29.88R $$ RIZALL-200200- RHODE ISLAND CITY SKY/WX TMP DP RH WIND PRES REMARKS PROVIDENCE FAIR 75 51 43 NW6 29.83R NEWPORT FAIR 72 54 53 N5 29.82R BLOCK ISLAND FAIR 70 54 56 N6 29.82R SMITHFIELD FAIR 68 50 52 NW6 29.85R WESTERLY FAIR 75 52 44 N5 29.83R $$ CTZALL-200200- CONNECTICUT CITY SKY/WX TMP DP RH WIND PRES REMARKS BRADLEY INTL MOCLDY 72 52 49 N8 29.85R HARTFORD FAIR 76 50 40 N9 29.84R BRIDGEPORT FAIR 78 55 44 NW7 29.83R DANBURY CLEAR 75 52 43 N10 29.87R GROTON FAIR 73 57 57 N6 29.82R NEW HAVEN FAIR 77 52 41 N8 29.83R CHESTER FAIR 70 55 60 CALM 29.85R MERIDEN FAIR 75 51 43 N3 29.84R WILLIMANTIC FAIR 71 55 56 N6 29.84R OXFORD FAIR 71 56 58 NW3 29.88R $$ MEZ002-015-021-024-NHZ003-005-008-011-012-014-VTZ005-008-200200- NORTHERN NEW ENGLAND CITY SKY/WX TMP DP RH WIND PRES REMARKS PORTLAND ME FAIR 68 49 50 NW5 29.82R BANGOR ME FAIR 67 44 43 W7 29.78R CONCORD NH FAIR 68 47 46 NW8 29.85R MANCHESTER NH FAIR 75 46 35 NW14 29.83R NASHUA NH FAIR 69 50 50 W3 29.85R PORTSMOUTH NH PTCLDY 69 46 43 NW9 29.81R JAFFREY NH FAIR 63 53 70 CALM 29.89R KEENE NH FAIR 63 50 62 NE3 29.88R BURLINGTON VT FAIR 69 48 47 NW5 29.90R MT. WASHINGTON FOG 41 41 100 NW39 N/A VSB 1/16WCI 28 $$ NYZ052-076-200200- EASTERN NEW YORK CITY SKY/WX TMP DP RH WIND PRES REMARKS ALBANY FAIR 72 52 49 NW3 29.88R NEW YORK CITY FAIR 82 53 36 NE9 29.83R $$ ANZALL-200200- MARINE OBSERVATIONS STATION/POSITION TIME TEMP WIND PRES VSBY WAVE AIR SEA DIR/SP/G HT/PER (UTC) (F) (DEG/KT/KT) (MB) (MI) (FT/S) BOSTON BUOY 0050 68 64 340/ 8/ 8 1009.4R 1/ 8 BUZZARDS BAY 0000 67 200/ 12/ 12 1009.7R NANTUCKET SOUND 0050 67 66 250/ 4/ 4 1009.7R 1 MASS BAY-STELLWA 0004 63 60 1007.5R 1/ 8 ISLE OF SHOALS 0000 74 310/ 14/ 15 1008.6R S OF BLOCK IS 0043 62 N/A 3/ 7 $$ ......................KEY......................... SKY/WX - SKY CONDITION/PRESENT WEATHER TMP - TEMPERATURE IN FAHRENHEIT DWPT - DEWPOINT IN FAHRENHEIT RH - RELATIVE HUMIDITY IN PERCENT WIND - DIRECTION AND SPEED IN MPH PRES - MEAN SEA LEVEL PRESSURE IN INCHES OF HG WCI - WIND CHILL INDEX VSB - VISIBILITY IN MILES HX - HEAT INDEX TC - TEMPERATURE IN CELSIUS VRB - VARIABLE WIND DIRECTION N/A - NOT AVAILABLE

USA.gov is the U.S. government's official web portal to all federal, state and local government web resources and services.